Year,Month,Day,Hour,Minute,Value (Times are PST for windspeed in km/hr)
2020,09,08,00,00,10.40
2020,09,08,00,01,16.80
2020,09,08,00,02,8.60
2020,09,08,00,03,14.20
2020,09,08,00,04,11.90
2020,09,08,00,05,10.00
2020,09,08,00,06,15.50
2020,09,08,00,07,11.00
2020,09,08,00,08,15.70
2020,09,08,00,09,13.20
2020,09,08,00,10,10.50
2020,09,08,00,11,12.70
2020,09,08,00,12,10.80
2020,09,08,00,13,13.50
2020,09,08,00,14,12.20
2020,09,08,00,15,13.80
2020,09,08,00,16,11.50
2020,09,08,00,17,11.70
2020,09,08,00,18,11.70
2020,09,08,00,19,14.30
2020,09,08,00,20,7.60
2020,09,08,00,21,7.50
2020,09,08,00,22,8.10
2020,09,08,00,23,6.10
2020,09,08,00,24,6.60
2020,09,08,00,25,9.80
2020,09,08,00,26,8.70
2020,09,08,00,27,9.90
2020,09,08,00,28,9.80
2020,09,08,00,29,7.50
2020,09,08,00,30,6.10
2020,09,08,00,31,6.30
2020,09,08,00,32,6.80
2020,09,08,00,33,8.00
2020,09,08,00,34,9.50
2020,09,08,00,35,7.20
2020,09,08,00,36,8.80
2020,09,08,00,37,7.10
2020,09,08,00,38,8.60
2020,09,08,00,39,7.60
2020,09,08,00,40,6.70
2020,09,08,00,41,6.70
2020,09,08,00,42,6.90
2020,09,08,00,43,7.60
2020,09,08,00,44,5.00
2020,09,08,00,45,9.50
2020,09,08,00,46,9.10
2020,09,08,00,47,8.80
2020,09,08,00,48,7.80
2020,09,08,00,49,8.50
2020,09,08,00,50,8.70
2020,09,08,00,51,8.10
2020,09,08,00,52,6.20
2020,09,08,00,53,3.10
2020,09,08,00,54,7.30
2020,09,08,00,55,3.90
2020,09,08,00,56,4.40
2020,09,08,00,57,7.20
2020,09,08,00,58,4.90
2020,09,08,00,59,10.40
2020,09,08,01,00,9.70
2020,09,08,01,01,2.70
2020,09,08,01,02,4.80
2020,09,08,01,03,3.70
2020,09,08,01,04,4.40
2020,09,08,01,05,2.80
2020,09,08,01,06,3.80
2020,09,08,01,07,6.90
2020,09,08,01,08,6.80
2020,09,08,01,09,7.30
2020,09,08,01,10,10.00
2020,09,08,01,11,5.80
2020,09,08,01,12,4.60
2020,09,08,01,13,5.10
2020,09,08,01,14,4.30
2020,09,08,01,15,5.90
2020,09,08,01,16,4.50
2020,09,08,01,17,3.60
2020,09,08,01,18,2.30
2020,09,08,01,19,2.20
2020,09,08,01,20,1.40
2020,09,08,01,21,1.10
2020,09,08,01,22,2.80
2020,09,08,01,23,0.50
2020,09,08,01,24,0.70
2020,09,08,01,25,3.40
2020,09,08,01,26,5.70
2020,09,08,01,27,5.60
2020,09,08,01,28,3.70
2020,09,08,01,29,2.70
2020,09,08,01,30,4.60
2020,09,08,01,31,4.00
2020,09,08,01,32,6.20
2020,09,08,01,33,6.40
2020,09,08,01,34,5.50
2020,09,08,01,35,4.30
2020,09,08,01,36,4.60
2020,09,08,01,37,3.90
2020,09,08,01,38,4.10
2020,09,08,01,39,3.60
2020,09,08,01,40,2.10
2020,09,08,01,41,2.60
2020,09,08,01,42,0.40
2020,09,08,01,43,2.40
2020,09,08,01,44,1.90
2020,09,08,01,45,2.50
2020,09,08,01,46,0.40
2020,09,08,01,47,1.70
2020,09,08,01,48,2.30
2020,09,08,01,49,2.50
2020,09,08,01,50,1.10
2020,09,08,01,51,0.20
2020,09,08,01,52,1.90
2020,09,08,01,53,0.40
2020,09,08,01,54,0.80
2020,09,08,01,55,1.20
2020,09,08,01,56,1.00
2020,09,08,01,57,0.20
2020,09,08,01,58,0.30
2020,09,08,01,59,0.60
2020,09,08,02,00,1.10
2020,09,08,02,01,1.60
2020,09,08,02,02,3.50
2020,09,08,02,03,0.60
2020,09,08,02,04,2.70
2020,09,08,02,05,0.10
2020,09,08,02,06,0.50
2020,09,08,02,07,3.30
2020,09,08,02,08,3.50
2020,09,08,02,09,0.30
2020,09,08,02,10,0.40
2020,09,08,02,11,2.10
2020,09,08,02,12,2.50
2020,09,08,02,13,1.00
2020,09,08,02,14,0.70
2020,09,08,02,15,2.60
2020,09,08,02,16,2.40
2020,09,08,02,17,1.00
2020,09,08,02,18,0.20
2020,09,08,02,19,0.50
2020,09,08,02,20,0.10
2020,09,08,02,21,1.10
2020,09,08,02,22,0.60
2020,09,08,02,23,0.20
2020,09,08,02,24,0.30
2020,09,08,02,25,1.80
2020,09,08,02,26,1.00
2020,09,08,02,27,0.40
2020,09,08,02,28,3.00
2020,09,08,02,29,0.60
2020,09,08,02,30,0.00
2020,09,08,02,31,1.00
2020,09,08,02,32,0.80
2020,09,08,02,33,2.10
2020,09,08,02,34,1.60
2020,09,08,02,35,4.50
2020,09,08,02,36,2.10
2020,09,08,02,37,4.30
2020,09,08,02,38,6.30
2020,09,08,02,39,5.20
2020,09,08,02,40,2.00
2020,09,08,02,41,3.00
2020,09,08,02,42,3.10
2020,09,08,02,43,2.70
2020,09,08,02,44,4.10
2020,09,08,02,45,3.60
2020,09,08,02,46,2.60
2020,09,08,02,47,3.70
2020,09,08,02,48,1.90
2020,09,08,02,49,0.50
2020,09,08,02,50,4.10
2020,09,08,02,51,3.40
2020,09,08,02,52,0.50
2020,09,08,02,53,1.20
2020,09,08,02,54,3.00
2020,09,08,02,55,2.00
2020,09,08,02,56,0.30
2020,09,08,02,57,0.60
2020,09,08,02,58,1.40
2020,09,08,02,59,4.50
2020,09,08,03,00,0.70
2020,09,08,03,01,0.20
2020,09,08,03,02,0.30
2020,09,08,03,03,2.90
2020,09,08,03,04,0.80
2020,09,08,03,05,1.10
2020,09,08,03,06,0.20
2020,09,08,03,07,0.60
2020,09,08,03,08,2.00
2020,09,08,03,09,0.00
2020,09,08,03,10,0.00
2020,09,08,03,11,0.00
2020,09,08,03,12,1.10
2020,09,08,03,13,0.40
2020,09,08,03,14,0.80
2020,09,08,03,15,0.00
2020,09,08,03,16,0.00
2020,09,08,03,17,0.20
2020,09,08,03,18,5.40
2020,09,08,03,19,3.00
2020,09,08,03,20,0.10
2020,09,08,03,21,0.00
2020,09,08,03,22,0.30
2020,09,08,03,23,2.80
2020,09,08,03,24,5.60
2020,09,08,03,25,1.50
2020,09,08,03,26,0.00
2020,09,08,03,27,0.00
2020,09,08,03,28,1.20
2020,09,08,03,29,0.60
2020,09,08,03,30,0.00
2020,09,08,03,31,0.00
2020,09,08,03,32,2.40
2020,09,08,03,33,1.70
2020,09,08,03,34,4.30
2020,09,08,03,35,3.10
2020,09,08,03,36,1.60
2020,09,08,03,37,4.50
2020,09,08,03,38,5.60
2020,09,08,03,39,6.20
2020,09,08,03,40,0.70
2020,09,08,03,41,1.50
2020,09,08,03,42,1.40
2020,09,08,03,43,2.10
2020,09,08,03,44,1.30
2020,09,08,03,45,0.60
2020,09,08,03,46,1.00
2020,09,08,03,47,0.20
2020,09,08,03,48,0.00
2020,09,08,03,49,0.30
2020,09,08,03,50,1.90
2020,09,08,03,51,0.20
2020,09,08,03,52,0.20
2020,09,08,03,53,1.20
2020,09,08,03,54,2.90
2020,09,08,03,55,1.50
2020,09,08,03,56,0.00
2020,09,08,03,57,0.30
2020,09,08,03,58,1.30
2020,09,08,03,59,2.60
2020,09,08,04,00,0.20
2020,09,08,04,01,0.10
2020,09,08,04,02,0.00
2020,09,08,04,03,0.00
2020,09,08,04,04,0.00
2020,09,08,04,05,0.00
2020,09,08,04,06,0.30
2020,09,08,04,07,4.00
2020,09,08,04,08,1.00
2020,09,08,04,09,0.00
2020,09,08,04,10,0.20
2020,09,08,04,11,2.10
2020,09,08,04,12,0.40
2020,09,08,04,13,0.00
2020,09,08,04,14,1.90
2020,09,08,04,15,4.60
2020,09,08,04,16,3.20
2020,09,08,04,17,3.40
2020,09,08,04,18,1.20
2020,09,08,04,19,0.20
2020,09,08,04,20,3.10
2020,09,08,04,21,3.90
2020,09,08,04,22,2.20
2020,09,08,04,23,0.10
2020,09,08,04,24,0.10
2020,09,08,04,25,0.90
2020,09,08,04,26,2.30
2020,09,08,04,27,2.40
2020,09,08,04,28,3.40
2020,09,08,04,29,0.60
2020,09,08,04,30,0.80
2020,09,08,04,31,2.40
2020,09,08,04,32,2.20
2020,09,08,04,33,2.70
2020,09,08,04,34,4.30
2020,09,08,04,35,5.10
2020,09,08,04,36,4.40
2020,09,08,04,37,4.90
2020,09,08,04,38,2.80
2020,09,08,04,39,1.60
2020,09,08,04,40,4.00
2020,09,08,04,41,1.30
2020,09,08,04,42,1.90
2020,09,08,04,43,3.10
2020,09,08,04,44,1.90
2020,09,08,04,45,2.00
2020,09,08,04,46,3.50
2020,09,08,04,47,4.80
2020,09,08,04,48,5.30
2020,09,08,04,49,5.10
2020,09,08,04,50,6.20
2020,09,08,04,51,5.60
2020,09,08,04,52,4.50
2020,09,08,04,53,3.30
2020,09,08,04,54,3.60
2020,09,08,04,55,6.10
2020,09,08,04,56,6.40
2020,09,08,04,57,6.30
2020,09,08,04,58,5.30
2020,09,08,04,59,2.40
2020,09,08,05,00,0.00
2020,09,08,05,01,0.40
2020,09,08,05,02,0.20
2020,09,08,05,03,0.80
2020,09,08,05,04,3.30
2020,09,08,05,05,3.80
2020,09,08,05,06,4.20
2020,09,08,05,07,6.20
2020,09,08,05,08,5.40
2020,09,08,05,09,4.30
2020,09,08,05,10,2.10
2020,09,08,05,11,0.00
2020,09,08,05,12,1.90
2020,09,08,05,13,3.00
2020,09,08,05,14,1.30
2020,09,08,05,15,0.10
2020,09,08,05,16,0.70
2020,09,08,05,17,1.70
2020,09,08,05,18,0.80
2020,09,08,05,19,2.90
2020,09,08,05,20,2.80
2020,09,08,05,21,3.90
2020,09,08,05,22,2.40
2020,09,08,05,23,0.80
2020,09,08,05,24,0.10
2020,09,08,05,25,0.40
2020,09,08,05,26,0.20
2020,09,08,05,27,0.00
2020,09,08,05,28,0.20
2020,09,08,05,29,0.10
2020,09,08,05,30,0.00
2020,09,08,05,31,0.00
2020,09,08,05,32,0.20
2020,09,08,05,33,0.30
2020,09,08,05,34,1.60
2020,09,08,05,35,2.30
2020,09,08,05,36,0.70
2020,09,08,05,37,0.00
2020,09,08,05,38,0.00
2020,09,08,05,39,0.00
2020,09,08,05,40,0.10
2020,09,08,05,41,0.30
2020,09,08,05,42,0.00
2020,09,08,05,43,0.40
2020,09,08,05,44,0.10
2020,09,08,05,45,0.20
2020,09,08,05,46,0.20
2020,09,08,05,47,0.60
2020,09,08,05,48,1.50
2020,09,08,05,49,0.50
2020,09,08,05,50,0.00
2020,09,08,05,51,0.00
2020,09,08,05,52,0.20
2020,09,08,05,53,0.50
2020,09,08,05,54,0.60
2020,09,08,05,55,0.00
2020,09,08,05,56,0.10
2020,09,08,05,57,0.10
2020,09,08,05,58,0.50
2020,09,08,05,59,0.90
2020,09,08,06,00,0.70
2020,09,08,06,01,2.00
2020,09,08,06,02,0.30
2020,09,08,06,03,1.20
2020,09,08,06,04,2.30
2020,09,08,06,05,1.00
2020,09,08,06,06,0.20
2020,09,08,06,07,0.10
2020,09,08,06,08,0.60
2020,09,08,06,09,1.90
2020,09,08,06,10,3.20
2020,09,08,06,11,3.70
2020,09,08,06,12,4.70
2020,09,08,06,13,3.50
2020,09,08,06,14,0.80
2020,09,08,06,15,2.40
2020,09,08,06,16,2.00
2020,09,08,06,17,2.50
2020,09,08,06,18,1.80
2020,09,08,06,19,0.80
2020,09,08,06,20,1.50
2020,09,08,06,21,1.80
2020,09,08,06,22,3.40
2020,09,08,06,23,2.80
2020,09,08,06,24,2.50
2020,09,08,06,25,0.40
2020,09,08,06,26,0.00
2020,09,08,06,27,0.00
2020,09,08,06,28,0.00
2020,09,08,06,29,1.10
2020,09,08,06,30,2.10
2020,09,08,06,31,2.20
2020,09,08,06,32,0.30
2020,09,08,06,33,0.80
2020,09,08,06,34,0.00
2020,09,08,06,35,0.00
2020,09,08,06,36,0.00
2020,09,08,06,37,0.10
2020,09,08,06,38,0.10
2020,09,08,06,39,0.80
2020,09,08,06,40,1.30
2020,09,08,06,41,0.00
2020,09,08,06,42,0.30
2020,09,08,06,43,0.30
2020,09,08,06,44,1.70
2020,09,08,06,45,0.90
2020,09,08,06,46,0.00
2020,09,08,06,47,0.40
2020,09,08,06,48,1.00
2020,09,08,06,49,1.00
2020,09,08,06,50,0.50
2020,09,08,06,51,0.50
2020,09,08,06,52,0.20
2020,09,08,06,53,0.70
2020,09,08,06,54,0.10
2020,09,08,06,55,0.30
2020,09,08,06,56,0.50
2020,09,08,06,57,0.40
2020,09,08,06,58,0.30
2020,09,08,06,59,0.10
2020,09,08,07,00,0.40
2020,09,08,07,01,0.60
2020,09,08,07,02,0.00
2020,09,08,07,03,0.50
2020,09,08,07,04,0.50
2020,09,08,07,05,0.80
2020,09,08,07,06,0.20
2020,09,08,07,07,1.60
2020,09,08,07,08,0.70
2020,09,08,07,09,0.20
2020,09,08,07,10,0.20
2020,09,08,07,11,1.10
2020,09,08,07,12,0.20
2020,09,08,07,13,0.60
2020,09,08,07,14,0.10
2020,09,08,07,15,0.20
2020,09,08,07,16,0.60
2020,09,08,07,17,0.10
2020,09,08,07,18,0.10
2020,09,08,07,19,0.00
2020,09,08,07,20,0.10
2020,09,08,07,21,0.50
2020,09,08,07,22,0.10
2020,09,08,07,23,0.50
2020,09,08,07,24,0.50
2020,09,08,07,25,0.00
2020,09,08,07,26,1.00
2020,09,08,07,27,1.50
2020,09,08,07,28,0.00
2020,09,08,07,29,0.20
2020,09,08,07,30,0.50
2020,09,08,07,31,0.00
2020,09,08,07,32,0.40
2020,09,08,07,33,0.40
2020,09,08,07,34,1.30
2020,09,08,07,35,1.90
2020,09,08,07,36,1.20
2020,09,08,07,37,0.40
2020,09,08,07,38,0.70
2020,09,08,07,39,0.40
2020,09,08,07,40,0.80
2020,09,08,07,41,0.50
2020,09,08,07,42,0.50
2020,09,08,07,43,0.00
2020,09,08,07,44,0.10
2020,09,08,07,45,0.00
2020,09,08,07,46,0.20
2020,09,08,07,47,1.30
2020,09,08,07,48,1.80
2020,09,08,07,49,1.20
2020,09,08,07,50,0.80
2020,09,08,07,51,1.80
2020,09,08,07,52,1.40
2020,09,08,07,53,0.80
2020,09,08,07,54,2.20
2020,09,08,07,55,1.40
2020,09,08,07,56,1.30
2020,09,08,07,57,1.20
2020,09,08,07,58,0.60
2020,09,08,07,59,0.80
2020,09,08,08,00,2.10
2020,09,08,08,01,1.60
2020,09,08,08,02,0.80
2020,09,08,08,03,1.50
2020,09,08,08,04,1.80
2020,09,08,08,05,1.20
2020,09,08,08,06,2.30
2020,09,08,08,07,2.00
2020,09,08,08,08,3.00
2020,09,08,08,09,2.20
2020,09,08,08,10,0.70
2020,09,08,08,11,1.20
2020,09,08,08,12,2.00
2020,09,08,08,13,1.80
2020,09,08,08,14,2.60
2020,09,08,08,15,2.70
2020,09,08,08,16,2.80
2020,09,08,08,17,3.20
2020,09,08,08,18,2.80
2020,09,08,08,19,2.50
2020,09,08,08,20,2.20
2020,09,08,08,21,2.30
2020,09,08,08,22,1.30
2020,09,08,08,23,3.30
2020,09,08,08,24,3.30
2020,09,08,08,25,2.90
2020,09,08,08,26,2.20
2020,09,08,08,27,3.50
2020,09,08,08,28,3.40
2020,09,08,08,29,3.80
2020,09,08,08,30,3.80
2020,09,08,08,31,2.90
2020,09,08,08,32,2.50
2020,09,08,08,33,2.20
2020,09,08,08,34,2.20
2020,09,08,08,35,1.10
2020,09,08,08,36,0.40
2020,09,08,08,37,1.20
2020,09,08,08,38,1.50
2020,09,08,08,39,3.40
2020,09,08,08,40,2.90
2020,09,08,08,41,2.00
2020,09,08,08,42,1.60
2020,09,08,08,43,0.80
2020,09,08,08,44,2.70
2020,09,08,08,45,2.90
2020,09,08,08,46,2.80
2020,09,08,08,47,2.50
2020,09,08,08,48,2.00
2020,09,08,08,49,0.50
2020,09,08,08,50,0.70
2020,09,08,08,51,1.90
2020,09,08,08,52,2.80
2020,09,08,08,53,0.70
2020,09,08,08,54,1.40
2020,09,08,08,55,1.80
2020,09,08,08,56,1.30
2020,09,08,08,57,1.70
2020,09,08,08,58,2.60
2020,09,08,08,59,4.10
2020,09,08,09,00,2.40
2020,09,08,09,01,1.30
2020,09,08,09,02,1.10
2020,09,08,09,03,2.10
2020,09,08,09,04,1.60
2020,09,08,09,05,1.10
2020,09,08,09,06,1.50
2020,09,08,09,07,3.80
2020,09,08,09,08,2.10
2020,09,08,09,09,4.40
2020,09,08,09,10,3.20
2020,09,08,09,11,4.10
2020,09,08,09,12,2.80
2020,09,08,09,13,3.60
2020,09,08,09,14,1.50
2020,09,08,09,15,2.60
2020,09,08,09,16,2.20
2020,09,08,09,17,3.90
2020,09,08,09,18,4.70
2020,09,08,09,19,2.40
2020,09,08,09,20,2.90
2020,09,08,09,21,3.00
2020,09,08,09,22,2.40
2020,09,08,09,23,2.70
2020,09,08,09,24,3.30
2020,09,08,09,25,5.60
2020,09,08,09,26,7.30
2020,09,08,09,27,6.90
2020,09,08,09,28,6.80
2020,09,08,09,29,6.40
2020,09,08,09,30,4.70
2020,09,08,09,31,5.50
2020,09,08,09,32,7.20
2020,09,08,09,33,5.00
2020,09,08,09,34,7.20
2020,09,08,09,35,3.30
2020,09,08,09,36,3.40
2020,09,08,09,37,5.10
2020,09,08,09,38,3.00
2020,09,08,09,39,6.00
2020,09,08,09,40,5.80
2020,09,08,09,41,7.90
2020,09,08,09,42,4.50
2020,09,08,09,43,6.60
2020,09,08,09,44,6.60
2020,09,08,09,45,4.00
2020,09,08,09,46,4.30
2020,09,08,09,47,6.20
2020,09,08,09,48,7.40
2020,09,08,09,49,3.10
2020,09,08,09,50,5.10
2020,09,08,09,51,7.70
2020,09,08,09,52,4.40
2020,09,08,09,53,11.10
2020,09,08,09,54,5.50
2020,09,08,09,55,6.20
2020,09,08,09,56,8.10
2020,09,08,09,57,5.00
2020,09,08,09,58,7.90
2020,09,08,09,59,4.40
2020,09,08,10,00,5.20
2020,09,08,10,01,5.80
2020,09,08,10,02,6.60
2020,09,08,10,03,6.30
2020,09,08,10,04,7.00
2020,09,08,10,05,6.10
2020,09,08,10,06,1.90
2020,09,08,10,07,2.40
2020,09,08,10,08,4.40
2020,09,08,10,09,5.10
2020,09,08,10,10,2.70
2020,09,08,10,11,2.50
2020,09,08,10,12,3.10
2020,09,08,10,13,5.30
2020,09,08,10,14,6.20
2020,09,08,10,15,4.00
2020,09,08,10,16,2.10
2020,09,08,10,17,3.30
2020,09,08,10,18,3.90
2020,09,08,10,19,5.10
2020,09,08,10,20,3.30
2020,09,08,10,21,1.70
2020,09,08,10,22,4.80
2020,09,08,10,23,4.90
2020,09,08,10,24,6.80
2020,09,08,10,25,6.50
2020,09,08,10,26,3.80
2020,09,08,10,27,3.40
2020,09,08,10,28,4.40
2020,09,08,10,29,4.00
2020,09,08,10,30,6.00
2020,09,08,10,31,4.90
2020,09,08,10,32,5.10
2020,09,08,10,33,4.80
2020,09,08,10,34,2.10
2020,09,08,10,35,3.10
2020,09,08,10,36,1.20
2020,09,08,10,37,4.70
2020,09,08,10,38,3.80
2020,09,08,10,39,4.20
2020,09,08,10,40,3.70
2020,09,08,10,41,6.40
2020,09,08,10,42,3.70
2020,09,08,10,43,5.00
2020,09,08,10,44,2.80
2020,09,08,10,45,3.60
2020,09,08,10,46,2.80
2020,09,08,10,47,4.00
2020,09,08,10,48,5.30
2020,09,08,10,49,3.30
2020,09,08,10,50,4.00
2020,09,08,10,51,3.40
2020,09,08,10,52,3.60
2020,09,08,10,53,8.00
2020,09,08,10,54,6.00
2020,09,08,10,55,3.70
2020,09,08,10,56,5.70
2020,09,08,10,57,7.80
2020,09,08,10,58,4.70
2020,09,08,10,59,2.80
2020,09,08,11,00,4.80
2020,09,08,11,01,3.40
2020,09,08,11,02,3.80
2020,09,08,11,03,6.50
2020,09,08,11,04,4.60
2020,09,08,11,05,3.50
2020,09,08,11,06,4.30
2020,09,08,11,07,7.00
2020,09,08,11,08,4.70
2020,09,08,11,09,4.60
2020,09,08,11,10,4.70
2020,09,08,11,11,6.80
2020,09,08,11,12,5.50
2020,09,08,11,13,3.30
2020,09,08,11,14,5.00
2020,09,08,11,15,7.10
2020,09,08,11,16,4.30
2020,09,08,11,17,4.70
2020,09,08,11,18,6.10
2020,09,08,11,19,3.40
2020,09,08,11,20,1.60
2020,09,08,11,21,1.50
2020,09,08,11,22,4.80
2020,09,08,11,23,3.20
2020,09,08,11,24,4.00
2020,09,08,11,25,1.70
2020,09,08,11,26,2.20
2020,09,08,11,27,1.80
2020,09,08,11,28,3.60
2020,09,08,11,29,5.20
2020,09,08,11,30,2.40
2020,09,08,11,31,3.80
2020,09,08,11,32,2.70
2020,09,08,11,33,7.10
2020,09,08,11,34,5.20
2020,09,08,11,35,7.10
2020,09,08,11,36,7.70
2020,09,08,11,37,2.70
2020,09,08,11,38,7.50
2020,09,08,11,39,6.50
2020,09,08,11,40,5.30
2020,09,08,11,41,1.50
2020,09,08,11,42,0.90
2020,09,08,11,43,4.00
2020,09,08,11,44,4.20
2020,09,08,11,45,5.10
2020,09,08,11,46,4.70
2020,09,08,11,47,6.80
2020,09,08,11,48,6.50
2020,09,08,11,49,4.70
2020,09,08,11,50,5.10
2020,09,08,11,51,4.40
2020,09,08,11,52,4.70
2020,09,08,11,53,4.20
2020,09,08,11,54,3.90
2020,09,08,11,55,2.00
2020,09,08,11,56,1.20
2020,09,08,11,57,0.50
2020,09,08,11,58,2.80
2020,09,08,11,59,3.60
2020,09,08,12,00,4.10
2020,09,08,12,01,4.40
2020,09,08,12,02,3.20
2020,09,08,12,03,3.00
2020,09,08,12,04,5.10
2020,09,08,12,05,6.60
2020,09,08,12,06,2.70
2020,09,08,12,07,5.20
2020,09,08,12,08,3.20
2020,09,08,12,09,4.10
2020,09,08,12,10,3.50
2020,09,08,12,11,5.70
2020,09,08,12,12,4.50
2020,09,08,12,13,5.40
2020,09,08,12,14,4.80
2020,09,08,12,15,5.70
2020,09,08,12,16,4.40
2020,09,08,12,17,6.60
2020,09,08,12,18,6.00
2020,09,08,12,19,5.10
2020,09,08,12,20,5.90
2020,09,08,12,21,4.20
2020,09,08,12,22,4.30
2020,09,08,12,23,4.10
2020,09,08,12,24,2.90
2020,09,08,12,25,4.70
2020,09,08,12,26,1.90
2020,09,08,12,27,2.80
2020,09,08,12,28,2.00
2020,09,08,12,29,2.80
2020,09,08,12,30,2.10
2020,09,08,12,31,2.90
2020,09,08,12,32,5.00
2020,09,08,12,33,6.30
2020,09,08,12,34,7.30
2020,09,08,12,35,5.80
2020,09,08,12,36,2.00
2020,09,08,12,37,5.50
2020,09,08,12,38,5.10
2020,09,08,12,39,3.40
2020,09,08,12,40,3.40
2020,09,08,12,41,3.80
2020,09,08,12,42,3.60
2020,09,08,12,43,8.60
2020,09,08,12,44,5.60
2020,09,08,12,45,4.50
2020,09,08,12,46,1.50
2020,09,08,12,47,5.80
2020,09,08,12,48,5.20
2020,09,08,12,49,5.50
2020,09,08,12,50,5.90
2020,09,08,12,51,6.40
2020,09,08,12,52,2.90
2020,09,08,12,53,3.50
2020,09,08,12,54,1.70
2020,09,08,12,55,3.80
2020,09,08,12,56,4.30
2020,09,08,12,57,4.40
2020,09,08,12,58,2.70
2020,09,08,12,59,5.50
2020,09,08,13,00,4.00
2020,09,08,13,01,1.80
2020,09,08,13,02,2.20
2020,09,08,13,03,2.70
2020,09,08,13,04,8.00
2020,09,08,13,05,7.50
2020,09,08,13,06,4.10
2020,09,08,13,07,1.60
2020,09,08,13,08,2.00
2020,09,08,13,09,4.00
2020,09,08,13,10,4.10
2020,09,08,13,11,5.60
2020,09,08,13,12,3.70
2020,09,08,13,13,4.30
2020,09,08,13,14,3.70
2020,09,08,13,15,4.40
2020,09,08,13,16,2.60
2020,09,08,13,17,6.80
2020,09,08,13,18,2.70
2020,09,08,13,19,3.10
2020,09,08,13,20,2.30
2020,09,08,13,21,3.40
2020,09,08,13,22,3.40
2020,09,08,13,23,1.20
2020,09,08,13,24,7.10
2020,09,08,13,25,8.30
2020,09,08,13,26,4.20
2020,09,08,13,27,2.70
2020,09,08,13,28,2.60
2020,09,08,13,29,4.70
2020,09,08,13,30,4.80
2020,09,08,13,31,6.30
2020,09,08,13,32,5.10
2020,09,08,13,33,10.70
2020,09,08,13,34,13.30
2020,09,08,13,35,7.70
2020,09,08,13,36,4.50
2020,09,08,13,37,6.10
2020,09,08,13,38,8.50
2020,09,08,13,39,11.10
2020,09,08,13,40,7.10
2020,09,08,13,41,3.90
2020,09,08,13,42,3.40
2020,09,08,13,43,6.30
2020,09,08,13,44,9.40
2020,09,08,13,45,10.30
2020,09,08,13,46,6.80
2020,09,08,13,47,7.70
2020,09,08,13,48,8.10
2020,09,08,13,49,4.70
2020,09,08,13,50,5.70
2020,09,08,13,51,5.20
2020,09,08,13,52,7.10
2020,09,08,13,53,7.80
2020,09,08,13,54,7.00
2020,09,08,13,55,5.70
2020,09,08,13,56,4.70
2020,09,08,13,57,6.70
2020,09,08,13,58,3.70
2020,09,08,13,59,7.00
2020,09,08,14,00,10.40
2020,09,08,14,01,5.70
2020,09,08,14,02,5.30
2020,09,08,14,03,4.80
2020,09,08,14,04,5.60
2020,09,08,14,05,10.60
2020,09,08,14,06,5.80
2020,09,08,14,07,6.90
2020,09,08,14,08,6.30
2020,09,08,14,09,6.50
2020,09,08,14,10,7.70
2020,09,08,14,11,4.30
2020,09,08,14,12,4.50
2020,09,08,14,13,5.00
2020,09,08,14,14,4.40
2020,09,08,14,15,3.10
2020,09,08,14,16,6.50
2020,09,08,14,17,9.20
2020,09,08,14,18,6.50
2020,09,08,14,19,2.50
2020,09,08,14,20,4.30
2020,09,08,14,21,11.10
2020,09,08,14,22,12.10
2020,09,08,14,23,8.20
2020,09,08,14,24,3.40
2020,09,08,14,25,5.30
2020,09,08,14,26,5.30
2020,09,08,14,27,7.50
2020,09,08,14,28,4.50
2020,09,08,14,29,8.40
2020,09,08,14,30,8.30
2020,09,08,14,31,7.10
2020,09,08,14,32,11.00
2020,09,08,14,33,6.90
2020,09,08,14,34,6.40
2020,09,08,14,35,10.00
2020,09,08,14,36,6.60
2020,09,08,14,37,8.10
2020,09,08,14,38,8.00
2020,09,08,14,39,6.00
2020,09,08,14,40,7.50
2020,09,08,14,41,11.30
2020,09,08,14,42,11.20
2020,09,08,14,43,5.30
2020,09,08,14,44,2.30
2020,09,08,14,45,11.10
2020,09,08,14,46,9.50
2020,09,08,14,47,8.30
2020,09,08,14,48,4.70
2020,09,08,14,49,5.40
2020,09,08,14,50,11.30
2020,09,08,14,51,13.30
2020,09,08,14,52,7.00
2020,09,08,14,53,8.40
2020,09,08,14,54,7.80
2020,09,08,14,55,9.30
2020,09,08,14,56,6.10
2020,09,08,14,57,7.60
2020,09,08,14,58,3.80
2020,09,08,14,59,7.00
2020,09,08,15,00,6.90
2020,09,08,15,01,9.30
2020,09,08,15,02,8.40
2020,09,08,15,03,8.10
2020,09,08,15,04,6.60
2020,09,08,15,05,7.40
2020,09,08,15,06,8.40
2020,09,08,15,07,8.20
2020,09,08,15,08,8.10
2020,09,08,15,09,8.20
2020,09,08,15,10,12.60
2020,09,08,15,11,9.80
2020,09,08,15,12,11.40
2020,09,08,15,13,7.80
2020,09,08,15,14,7.10
2020,09,08,15,15,6.80
2020,09,08,15,16,6.50
2020,09,08,15,17,7.60
2020,09,08,15,18,5.70
2020,09,08,15,19,9.70
2020,09,08,15,20,11.10
2020,09,08,15,21,6.30
2020,09,08,15,22,8.20
2020,09,08,15,23,12.40
2020,09,08,15,24,7.70
2020,09,08,15,25,8.60
2020,09,08,15,26,9.00
2020,09,08,15,27,9.40
2020,09,08,15,28,3.30
2020,09,08,15,29,3.80
2020,09,08,15,30,6.40
2020,09,08,15,31,10.40
2020,09,08,15,32,6.80
2020,09,08,15,33,8.80
2020,09,08,15,34,9.30
2020,09,08,15,35,3.70
2020,09,08,15,36,7.60
2020,09,08,15,37,9.60
2020,09,08,15,38,9.70
2020,09,08,15,39,9.70
2020,09,08,15,40,8.80
2020,09,08,15,41,9.90
2020,09,08,15,42,5.50
2020,09,08,15,43,5.60
2020,09,08,15,44,6.30
2020,09,08,15,45,9.10
2020,09,08,15,46,5.30
2020,09,08,15,47,4.50
2020,09,08,15,48,3.90
2020,09,08,15,49,5.90
2020,09,08,15,50,9.30
2020,09,08,15,51,16.60
2020,09,08,15,52,14.60
2020,09,08,15,53,7.80
2020,09,08,15,54,5.50
2020,09,08,15,55,10.10
2020,09,08,15,56,11.10
2020,09,08,15,57,17.50
2020,09,08,15,58,10.60
2020,09,08,15,59,10.00
2020,09,08,16,00,8.30
2020,09,08,16,01,8.00
2020,09,08,16,02,9.20
2020,09,08,16,03,18.70
2020,09,08,16,04,14.70
2020,09,08,16,05,14.30
2020,09,08,16,06,10.50
2020,09,08,16,07,12.70
2020,09,08,16,08,12.10
2020,09,08,16,09,7.80
2020,09,08,16,10,7.80
2020,09,08,16,11,14.90
2020,09,08,16,12,14.40
2020,09,08,16,13,10.50
2020,09,08,16,14,14.20
2020,09,08,16,15,12.50
2020,09,08,16,16,14.30
2020,09,08,16,17,13.50
2020,09,08,16,18,11.00
2020,09,08,16,19,12.00
2020,09,08,16,20,8.40
2020,09,08,16,21,8.60
2020,09,08,16,22,13.50
2020,09,08,16,23,8.40
2020,09,08,16,24,9.50
2020,09,08,16,25,8.40
2020,09,08,16,26,11.30
2020,09,08,16,27,8.60
2020,09,08,16,28,8.40
2020,09,08,16,29,16.20
2020,09,08,16,30,9.10
2020,09,08,16,31,9.40
2020,09,08,16,32,9.30
2020,09,08,16,33,11.20
2020,09,08,16,34,11.20
2020,09,08,16,35,10.80
2020,09,08,16,36,14.60
2020,09,08,16,37,9.40
2020,09,08,16,38,8.30
2020,09,08,16,39,9.70
2020,09,08,16,40,9.40
2020,09,08,16,41,14.40
2020,09,08,16,42,11.00
2020,09,08,16,43,5.80
2020,09,08,16,44,9.40
2020,09,08,16,45,11.10
2020,09,08,16,46,13.10
2020,09,08,16,47,10.10
2020,09,08,16,48,10.40
2020,09,08,16,49,7.70
2020,09,08,16,50,12.40
2020,09,08,16,51,9.60
2020,09,08,16,52,7.20
2020,09,08,16,53,12.20
2020,09,08,16,54,10.50
2020,09,08,16,55,9.30
2020,09,08,16,56,10.10
2020,09,08,16,57,8.70
2020,09,08,16,58,8.20
2020,09,08,16,59,10.70
2020,09,08,17,00,15.60
2020,09,08,17,01,8.00
2020,09,08,17,02,10.00
2020,09,08,17,03,7.40
2020,09,08,17,04,10.00
2020,09,08,17,05,12.10
2020,09,08,17,06,9.50
2020,09,08,17,07,7.40
2020,09,08,17,08,7.40
2020,09,08,17,09,11.70
2020,09,08,17,10,9.50
2020,09,08,17,11,9.50
2020,09,08,17,12,6.10
2020,09,08,17,13,10.90
2020,09,08,17,14,10.90
2020,09,08,17,15,9.30
2020,09,08,17,16,10.80
2020,09,08,17,17,12.60
2020,09,08,17,18,8.40
2020,09,08,17,19,6.10
2020,09,08,17,20,4.80
2020,09,08,17,21,8.70
2020,09,08,17,22,8.30
2020,09,08,17,23,6.40
2020,09,08,17,24,10.20
2020,09,08,17,25,9.80
2020,09,08,17,26,8.10
2020,09,08,17,27,8.90
2020,09,08,17,28,9.70
2020,09,08,17,29,11.60
2020,09,08,17,30,9.40
2020,09,08,17,31,6.40
2020,09,08,17,32,8.00
2020,09,08,17,33,8.10
2020,09,08,17,34,10.90
2020,09,08,17,35,9.10
2020,09,08,17,36,7.80
2020,09,08,17,37,9.30
2020,09,08,17,38,9.60
2020,09,08,17,39,6.80
2020,09,08,17,40,9.00
2020,09,08,17,41,8.90
2020,09,08,17,42,9.40
2020,09,08,17,43,8.90
2020,09,08,17,44,13.50
2020,09,08,17,45,8.70
2020,09,08,17,46,9.90
2020,09,08,17,47,7.40
2020,09,08,17,48,8.20
2020,09,08,17,49,5.60
2020,09,08,17,50,8.30
2020,09,08,17,51,8.00
2020,09,08,17,52,7.70
2020,09,08,17,53,5.50
2020,09,08,17,54,5.80
2020,09,08,17,55,7.60
2020,09,08,17,56,8.40
2020,09,08,17,57,4.80
2020,09,08,17,58,5.10
2020,09,08,17,59,7.20
2020,09,08,18,00,6.50
2020,09,08,18,01,7.70
2020,09,08,18,02,6.30